Time,TemperatureF,DewpointF,PressureIn,WindDirection,WindDirectionDegrees,WindSpeedMPH,WindSpeedGustMPH,Humidity,HourlyPrecipIn,Conditions,Clouds,dailyrainin,SolarRadiationWatts/m^2,SoftwareType,DateUTC
2013-05-01 00:05:00,61.1,60.0,30.12,East,100,0.0,3.0,96,0.00,,,0.00,0,weatherlink.com 1.10,2013-05-01 04:05:00,
2013-05-01 00:20:00,61.9,61.0,30.12,East,92,0.0,2.0,95,0.00,,,0.00,0,weatherlink.com 1.10,2013-05-01 04:20:00,
2013-05-01 00:35:00,62.1,61.0,30.12,SSE,157,0.0,5.0,95,0.00,,,0.00,0,weatherlink.com 1.10,2013-05-01 04:35:00,
2013-05-01 00:50:00,62.3,61.0,30.13,ESE,106,0.0,4.0,95,0.00,,,0.00,0,weatherlink.com 1.10,2013-05-01 04:50:00,
2013-05-01 01:05:00,62.3,61.0,30.13,ESE,105,0.0,2.0,95,0.00,,,0.00,0,weatherlink.com 1.10,2013-05-01 05:05:00,
2013-05-01 01:20:00,62.3,61.0,30.12,East,94,0.0,3.0,94,0.00,,,0.00,0,weatherlink.com 1.10,2013-05-01 05:20:00,
2013-05-01 01:36:00,62.4,61.0,30.12,East,86,0.0,7.0,94,0.00,,,0.00,0,weatherlink.com 1.10,2013-05-01 05:36:00,
2013-05-01 01:51:00,62.4,61.0,30.12,ENE,74,3.0,6.0,94,0.00,,,0.00,0,weatherlink.com 1.10,2013-05-01 05:51:00,
2013-05-01 02:06:00,62.2,61.0,30.11,ENE,58,0.0,7.0,94,0.00,,,0.00,0,weatherlink.com 1.10,2013-05-01 06:06:00,
2013-05-01 02:21:00,62.1,60.0,30.11,ESE,114,1.0,7.0,94,0.00,,,0.00,0,weatherlink.com 1.10,2013-05-01 06:21:00,
2013-05-01 02:36:00,61.9,60.0,30.11,East,88,0.0,5.0,94,0.00,,,0.00,0,weatherlink.com 1.10,2013-05-01 06:36:00,
2013-05-01 02:51:00,61.8,60.0,30.11,ESE,108,3.0,9.0,94,0.00,,,0.00,0,weatherlink.com 1.10,2013-05-01 06:51:00,
2013-05-01 03:06:00,61.8,60.0,30.11,East,93,0.0,3.0,94,0.00,,,0.00,0,weatherlink.com 1.10,2013-05-01 07:06:00,
2013-05-01 03:21:00,61.9,60.0,30.11,ESE,113,0.0,3.0,94,0.00,,,0.00,0,weatherlink.com 1.10,2013-05-01 07:21:00,
2013-05-01 03:36:00,61.9,60.0,30.10,East,94,0.0,7.0,94,0.00,,,0.00,0,weatherlink.com 1.10,2013-05-01 07:36:00,
2013-05-01 03:51:00,61.8,60.0,30.11,SE,136,3.0,5.0,93,0.00,,,0.00,0,weatherlink.com 1.10,2013-05-01 07:51:00,
2013-05-01 04:06:00,61.5,60.0,30.11,NE,35,0.0,7.0,93,0.00,,,0.00,0,weatherlink.com 1.10,2013-05-01 08:06:00,
2013-05-01 04:21:00,61.4,59.0,30.11,ENE,78,1.0,5.0,93,0.00,,,0.00,0,weatherlink.com 1.10,2013-05-01 08:21:00,
2013-05-01 04:36:00,61.0,59.0,30.11,SE,136,0.0,6.0,92,0.00,,,0.00,0,weatherlink.com 1.10,2013-05-01 08:36:00,
2013-05-01 04:51:00,60.4,58.0,30.11,ESE,114,0.0,2.0,93,0.00,,,0.00,0,weatherlink.com 1.10,2013-05-01 08:51:00,
2013-05-01 05:06:00,60.0,58.0,30.11,East,90,0.0,7.0,93,0.00,,,0.00,0,weatherlink.com 1.10,2013-05-01 09:06:00,
2013-05-01 05:21:00,59.7,58.0,30.11,East,84,0.0,5.0,93,0.00,,,0.00,0,weatherlink.com 1.10,2013-05-01 09:21:00,
2013-05-01 05:36:00,59.4,57.0,30.11,East,95,0.0,8.0,93,0.00,,,0.00,0,weatherlink.com 1.10,2013-05-01 09:36:00,
2013-05-01 05:51:00,59.0,57.0,30.11,ESE,123,2.0,10.0,93,0.00,,,0.00,0,weatherlink.com 1.10,2013-05-01 09:51:00,
2013-05-01 06:06:00,59.0,57.0,30.12,East,87,3.0,6.0,93,0.00,,,0.00,0,weatherlink.com 1.10,2013-05-01 10:06:00,
2013-05-01 06:21:00,58.7,57.0,30.12,East,88,0.0,7.0,93,0.00,,,0.00,0,weatherlink.com 1.10,2013-05-01 10:21:00,
2013-05-01 06:36:00,58.7,57.0,30.12,East,93,0.0,9.0,93,0.00,,,0.00,0,weatherlink.com 1.10,2013-05-01 10:36:00,
2013-05-01 06:51:00,58.7,56.0,30.13,ESE,110,0.0,9.0,92,0.00,,,0.00,7,weatherlink.com 1.10,2013-05-01 10:51:00,
2013-05-01 07:06:00,58.6,56.0,30.13,East,90,3.0,10.0,92,0.00,,,0.00,18,weatherlink.com 1.10,2013-05-01 11:06:00,
2013-05-01 07:21:00,58.6,56.0,30.14,ESE,112,0.0,9.0,92,0.00,,,0.00,40,weatherlink.com 1.10,2013-05-01 11:21:00,
2013-05-01 07:36:00,58.5,56.0,30.15,ENE,74,0.0,9.0,92,0.00,,,0.00,47,weatherlink.com 1.10,2013-05-01 11:36:00,
2013-05-01 07:51:00,58.6,56.0,30.16,NE,49,0.0,8.0,92,0.00,,,0.00,62,weatherlink.com 1.10,2013-05-01 11:51:00,
2013-05-01 08:06:00,59.0,57.0,30.16,ESE,107,0.0,7.0,92,0.00,,,0.00,105,weatherlink.com 1.10,2013-05-01 12:06:00,
2013-05-01 08:21:00,59.4,57.0,30.16,ESE,103,1.0,7.0,91,0.00,,,0.00,251,weatherlink.com 1.10,2013-05-01 12:21:00,
2013-05-01 08:36:00,60.3,57.0,30.18,ENE,61,0.0,9.0,89,0.00,,,0.00,190,weatherlink.com 1.10,2013-05-01 12:36:00,
2013-05-01 08:51:00,60.3,57.0,30.17,NNE,30,4.0,10.0,89,0.00,,,0.00,149,weatherlink.com 1.10,2013-05-01 12:51:00,
2013-05-01 09:06:00,60.9,57.0,30.18,NNE,30,0.0,6.0,88,0.00,,,0.00,207,weatherlink.com 1.10,2013-05-01 13:06:00,
2013-05-01 09:21:00,62.1,58.0,30.18,ESE,105,0.0,9.0,86,0.00,,,0.00,278,weatherlink.com 1.10,2013-05-01 13:21:00,
2013-05-01 09:36:00,62.0,57.0,30.18,NE,34,2.0,8.0,84,0.00,,,0.00,647,weatherlink.com 1.10,2013-05-01 13:36:00,
2013-05-01 09:51:00,63.0,57.0,30.19,East,82,0.0,11.0,82,0.00,,,0.00,269,weatherlink.com 1.10,2013-05-01 13:51:00,
2013-05-01 10:06:00,61.8,57.0,30.20,NE,38,3.0,9.0,83,0.00,,,0.00,260,weatherlink.com 1.10,2013-05-01 14:06:00,
2013-05-01 10:21:00,61.8,57.0,30.21,East,87,0.0,6.0,83,0.00,,,0.00,223,weatherlink.com 1.10,2013-05-01 14:21:00,
2013-05-01 10:36:00,61.6,56.0,30.21,ESE,104,0.0,9.0,82,0.00,,,0.00,269,weatherlink.com 1.10,2013-05-01 14:36:00,
2013-05-01 10:52:00,61.6,56.0,30.21,NNE,17,5.0,7.0,82,0.00,,,0.00,237,weatherlink.com 1.10,2013-05-01 14:52:00,
2013-05-01 11:07:00,61.2,56.0,30.21,East,88,0.0,8.0,84,0.00,,,0.00,202,weatherlink.com 1.10,2013-05-01 15:07:00,
2013-05-01 11:22:00,61.1,56.0,30.21,ENE,71,0.0,8.0,84,0.00,,,0.00,190,weatherlink.com 1.10,2013-05-01 15:22:00,
2013-05-01 11:37:00,61.5,57.0,30.20,ENE,59,0.0,7.0,84,0.00,,,0.00,162,weatherlink.com 1.10,2013-05-01 15:37:00,
2013-05-01 11:52:00,61.6,56.0,30.20,SE,146,3.0,10.0,83,0.00,,,0.00,214,weatherlink.com 1.10,2013-05-01 15:52:00,
2013-05-01 12:07:00,61.9,57.0,30.20,East,94,0.0,12.0,83,0.00,,,0.00,330,weatherlink.com 1.10,2013-05-01 16:07:00,
2013-05-01 12:22:00,61.8,56.0,30.20,NE,46,1.0,12.0,82,0.00,,,0.00,229,weatherlink.com 1.10,2013-05-01 16:22:00,
2013-05-01 12:37:00,61.8,57.0,30.20,ESE,121,0.0,8.0,83,0.00,,,0.00,260,weatherlink.com 1.10,2013-05-01 16:37:00,
2013-05-01 12:52:00,62.5,57.0,30.20,ENE,78,0.0,6.0,82,0.00,,,0.00,239,weatherlink.com 1.10,2013-05-01 16:52:00,
2013-05-01 13:07:00,62.7,58.0,30.21,NE,48,0.0,7.0,83,0.00,,,0.00,204,weatherlink.com 1.10,2013-05-01 17:07:00,
2013-05-01 13:22:00,63.3,57.0,30.21,NE,55,1.0,6.0,81,0.00,,,0.00,236,weatherlink.com 1.10,2013-05-01 17:22:00,
2013-05-01 13:37:00,63.6,57.0,30.20,NNE,32,0.0,8.0,80,0.00,,,0.00,232,weatherlink.com 1.10,2013-05-01 17:37:00,
2013-05-01 13:52:00,64.2,58.0,30.20,East,94,0.0,8.0,81,0.00,,,0.00,227,weatherlink.com 1.10,2013-05-01 17:52:00,
2013-05-01 14:07:00,64.3,58.0,30.19,NE,40,0.0,6.0,79,0.00,,,0.00,181,weatherlink.com 1.10,2013-05-01 18:07:00,
2013-05-01 14:22:00,65.8,59.0,30.19,SSE,151,3.0,3.0,78,0.00,,,0.00,243,weatherlink.com 1.10,2013-05-01 18:22:00,
2013-05-01 14:37:00,66.2,58.0,30.18,ESE,113,0.0,5.0,76,0.00,,,0.00,311,weatherlink.com 1.10,2013-05-01 18:37:00,
2013-05-01 14:52:00,67.2,59.0,30.18,North,9,1.0,8.0,75,0.00,,,0.00,374,weatherlink.com 1.10,2013-05-01 18:52:00,
2013-05-01 15:07:00,66.9,58.0,30.18,ESE,103,3.0,8.0,73,0.00,,,0.00,209,weatherlink.com 1.10,2013-05-01 19:07:00,
2013-05-01 15:22:00,67.8,59.0,30.18,NE,47,3.0,6.0,74,0.00,,,0.00,439,weatherlink.com 1.10,2013-05-01 19:22:00,
2013-05-01 15:37:00,68.5,59.0,30.17,North,355,1.0,9.0,71,0.00,,,0.00,387,weatherlink.com 1.10,2013-05-01 19:37:00,
2013-05-01 15:52:00,68.0,59.0,30.17,NNE,31,4.0,7.0,72,0.00,,,0.00,295,weatherlink.com 1.10,2013-05-01 19:52:00,
2013-05-01 16:07:00,68.9,59.0,30.16,NNE,31,0.0,8.0,71,0.00,,,0.00,471,weatherlink.com 1.10,2013-05-01 20:07:00,
2013-05-01 16:22:00,68.9,59.0,30.16,NNE,19,1.0,7.0,71,0.00,,,0.00,244,weatherlink.com 1.10,2013-05-01 20:22:00,
2013-05-01 16:37:00,68.4,58.0,30.15,ENE,68,0.0,7.0,70,0.00,,,0.00,332,weatherlink.com 1.10,2013-05-01 20:37:00,
2013-05-01 16:52:00,68.5,59.0,30.15,ESE,106,4.0,8.0,72,0.00,,,0.00,267,weatherlink.com 1.10,2013-05-01 20:52:00,
2013-05-01 17:07:00,67.4,58.0,30.15,ESE,115,0.0,8.0,73,0.00,,,0.00,158,weatherlink.com 1.10,2013-05-01 21:07:00,
2013-05-01 17:22:00,67.7,59.0,30.15,ESE,106,0.0,9.0,73,0.00,,,0.00,141,weatherlink.com 1.10,2013-05-01 21:22:00,
2013-05-01 17:37:00,67.6,59.0,30.16,ESE,121,0.0,5.0,73,0.00,,,0.00,171,weatherlink.com 1.10,2013-05-01 21:37:00,
2013-05-01 17:52:00,67.6,59.0,30.15,East,86,3.0,5.0,73,0.00,,,0.00,116,weatherlink.com 1.10,2013-05-01 21:52:00,
2013-05-01 18:07:00,67.5,59.0,30.15,NE,55,0.0,5.0,74,0.00,,,0.00,109,weatherlink.com 1.10,2013-05-01 22:07:00,
2013-05-01 18:22:00,67.1,59.0,30.15,ESE,118,0.0,5.0,75,0.00,,,0.00,88,weatherlink.com 1.10,2013-05-01 22:22:00,
2013-05-01 18:37:00,66.8,59.0,30.15,NE,55,1.0,6.0,75,0.00,,,0.00,88,weatherlink.com 1.10,2013-05-01 22:37:00,
2013-05-01 18:52:00,66.6,59.0,30.15,ESE,103,1.0,7.0,76,0.00,,,0.00,74,weatherlink.com 1.10,2013-05-01 22:52:00,
2013-05-01 19:07:00,66.5,59.0,30.15,NNE,26,0.0,5.0,77,0.00,,,0.00,56,weatherlink.com 1.10,2013-05-01 23:07:00,
2013-05-01 19:22:00,65.9,59.0,30.15,NNE,26,0.0,1.0,79,0.00,,,0.00,39,weatherlink.com 1.10,2013-05-01 23:22:00,
2013-05-01 19:37:00,65.6,59.0,30.15,ESE,113,2.0,3.0,80,0.00,,,0.00,26,weatherlink.com 1.10,2013-05-01 23:37:00,
2013-05-01 19:52:00,65.2,59.0,30.15,ESE,104,0.0,3.0,80,0.00,,,0.00,12,weatherlink.com 1.10,2013-05-01 23:52:00,
2013-05-01 20:07:00,65.0,59.0,30.16,ESE,107,0.0,3.0,80,0.00,,,0.00,0,weatherlink.com 1.10,2013-05-02 00:07:00,
2013-05-01 20:22:00,64.5,59.0,30.16,ESE,116,0.0,3.0,81,0.00,,,0.00,0,weatherlink.com 1.10,2013-05-02 00:22:00,
2013-05-01 20:37:00,64.3,59.0,30.16,ESE,103,0.0,3.0,82,0.00,,,0.00,0,weatherlink.com 1.10,2013-05-02 00:37:00,
2013-05-01 20:52:00,63.9,58.0,30.16,ESE,115,3.0,5.0,82,0.00,,,0.00,0,weatherlink.com 1.10,2013-05-02 00:52:00,
2013-05-01 21:07:00,63.6,58.0,30.16,ESE,103,0.0,5.0,83,0.00,,,0.00,0,weatherlink.com 1.10,2013-05-02 01:07:00,
2013-05-01 21:22:00,63.4,59.0,30.16,ESE,110,0.0,3.0,84,0.00,,,0.00,0,weatherlink.com 1.10,2013-05-02 01:22:00,
2013-05-01 21:37:00,63.2,59.0,30.17,ESE,103,0.0,2.0,85,0.00,,,0.00,0,weatherlink.com 1.10,2013-05-02 01:37:00,
2013-05-01 21:52:00,62.9,58.0,30.18,East,82,0.0,7.0,85,0.00,,,0.00,0,weatherlink.com 1.10,2013-05-02 01:52:00,
2013-05-01 22:07:00,62.9,58.0,30.19,ESE,117,0.0,7.0,85,0.00,,,0.00,0,weatherlink.com 1.10,2013-05-02 02:07:00,
2013-05-01 22:22:00,62.7,58.0,30.19,East,98,0.0,7.0,85,0.00,,,0.00,0,weatherlink.com 1.10,2013-05-02 02:22:00,
2013-05-01 22:37:00,62.5,58.0,30.19,ESE,113,0.0,9.0,85,0.00,,,0.00,0,weatherlink.com 1.10,2013-05-02 02:37:00,
2013-05-01 22:52:00,62.3,57.0,30.20,East,88,1.0,7.0,84,0.00,,,0.00,0,weatherlink.com 1.10,2013-05-02 02:52:00,
2013-05-01 23:07:00,62.2,57.0,30.19,SSE,167,0.0,4.0,84,0.00,,,0.00,0,weatherlink.com 1.10,2013-05-02 03:07:00,
2013-05-01 23:22:00,62.0,57.0,30.20,ESE,107,1.0,8.0,84,0.00,,,0.00,0,weatherlink.com 1.10,2013-05-02 03:22:00,
2013-05-01 23:37:00,61.8,57.0,30.20,East,90,0.0,6.0,85,0.00,,,0.00,0,weatherlink.com 1.10,2013-05-02 03:37:00,
2013-05-01 23:52:00,61.7,57.0,30.19,NNE,17,0.0,4.0,85,0.00,,,0.00,0,weatherlink.com 1.10,2013-05-02 03:52:00,